#timestamp,LO_Frequency,Hit,StdDev 
1671058815.9,286046998.6,N
1671058835.7,286046998.3,N
1671058855.6,286046998.6,N
1671058875.4,286046998.9,N
1671058895.2,286047001.2,N
1671058915.1,286047000.0,N
1671058916.0,286047000.0,N
1671058935.8,286047002.8,N
1671058955.7,286047001.1,N
1671058975.5,286047001.9,N
1671058995.3,286047001.9,N
1671059015.2,286047001.5,N
1671059035.0,286047002.7,N
1671059035.9,286047002.7,N
1671059055.7,286047001.0,N
1671059075.6,286047000.9,N
1671059095.4,286047000.9,N
1671059115.3,286047000.8,N
1671059135.1,286047000.1,N
1671059136.0,286047000.1,N
1671059155.8,286047002.4,N
1671059175.7,286047002.6,N
1671059195.5,286047002.8,N
1671059215.3,286047000.3,N
1671059235.2,286047000.0,N
1671059255.0,286047000.2,N
1671059255.9,286047000.2,N
1671059275.8,286046998.4,N
1671059295.6,286046999.0,N
1671059315.4,286046999.5,N
1671059335.3,286046999.3,N
1671059355.1,286046999.4,N
1671059375.9,286046999.4,N
1671059395.7,286046998.7,N
1671059415.5,286046998.6,N
1671059435.4,286047000.9,N
1671059455.2,286047000.8,N
1671059475.0,286047000.0,N
1671059475.9,286047000.0,N
1671059495.8,286046999.7,N
1671059515.6,286047000.1,N
1671059535.5,286047000.5,N
1671059555.3,286047002.8,N
1671059575.1,286046999.9,N
1671059595.9,286046999.9,N
1671059615.7,286047002.4,N
1671059635.5,286046999.7,N
1671059655.4,286047002.1,N
1671059675.2,286047002.8,N
1671059695.1,286047002.4,N
1671059696.0,286047002.4,N
1671059715.8,286047002.8,N
1671059735.6,286047002.4,N
1671059755.5,286047000.4,N
1671059775.3,286046999.9,N
1671059795.2,286047002.3,N
1671059815.9,286046999.7,N
1671059835.7,286047000.0,N
1671059855.6,286046999.8,N
1671059875.4,286047000.5,N
1671059895.3,286047000.6,N
1671059915.1,286046998.2,N
1671059916.0,286046998.2,N
1671059935.8,286047000.6,N
1671059955.7,286046998.4,N
1671059975.5,286046998.4,N
1671059995.3,286046998.1,N
1671060015.2,286046999.7,N
1671060035.0,286047002.3,N
1671060035.9,286047002.3,N
1671060055.8,286047002.8,N
1671060075.6,286047002.4,N
1671060095.4,286046999.9,N
1671060115.3,286047000.2,N
1671060135.1,286047000.1,N
1671060155.9,286046999.9,N
1671060175.7,286047000.5,N
1671060195.5,286047000.9,N
1671060215.4,286046999.8,N
1671060235.2,286047002.7,N
1671060255.0,286047002.2,N
1671060255.9,286047002.2,N
1671060275.8,286046999.8,N
1671060295.6,286046999.8,N
1671060315.5,286047002.8,N
1671060335.3,286047002.6,N
1671060355.1,286047001.9,N
1671060375.9,286047000.2,N
1671060395.7,286047000.1,N
1671060415.6,286046999.7,N
1671060435.4,286046999.8,N
1671060455.2,286047000.9,N
1671060475.1,286047000.5,N
1671060476.0,286047000.5,N
1671060495.8,286046999.7,N
1671060515.6,286046999.9,N
1671060535.5,286047002.2,N
1671060555.3,286047001.9,N
1671060575.2,286047002.2,N
1671060595.6,286047002.4,N
1671060615.4,286047000.7,N
1671060635.2,286047002.8,N
1671060655.1,286047002.1,N
1671060656.0,286047002.1,N
1671060675.8,286047002.2,N
1671060695.7,286047002.2,N
1671060715.5,286047001.9,N
1671060735.3,286047001.4,N
1671060755.2,286047002.0,N
1671060775.0,286047002.1,N
1671060775.9,286047002.1,N
1671060795.7,286047002.2,N
1671060815.6,286047002.8,N
1671060835.4,286047001.0,N
1671060855.3,286046998.1,N
1671060875.1,286047001.2,N
1671060876.0,286047001.2,N
1671060895.8,286046998.8,N
1671060915.7,286046998.4,N
1671060935.5,286046998.1,N
1671060955.4,286046998.1,N
1671060975.2,286047000.9,N
1671060995.0,286047000.4,N
1671060995.9,286047000.4,N
1671061015.8,286047000.0,N
1671061035.6,286047002.8,N
1671061055.4,286046998.2,N
1671061075.3,286047001.1,N
1671061095.1,286046998.4,N
1671061115.9,286046999.3,N
1671061135.7,286046998.6,N
1671061155.5,286046998.7,N
1671061175.4,286046998.6,N
1671061195.2,286046998.3,N
1671061215.0,286046998.7,N
1671061215.9,286046998.7,N
1671061235.8,286046999.1,N
1671061255.6,286046997.4,N
1671061275.8,286046997.9,N
1671061295.6,286046997.6,N
1671061315.4,286046995.0,Y
1671061335.3,286046995.3,P
1671061355.1,286046997.6,N
1671061375.9,286046995.4,N
1671061395.7,286046995.4,N
1671061415.5,286046995.2,N
1671061435.4,286046995.0,Y
1671061455.2,286047001.2,P
1671061475.0,286046998.2,N
1671061475.9,286046998.2,N
1671061495.8,286046998.9,N
1671061515.6,286047001.0,N
1671061535.5,286046998.6,N
1671061555.3,286046998.3,N
1671061575.1,286046998.5,N
1671061595.9,286047001.0,N
1671061615.7,286047000.7,N
1671061635.5,286046999.0,N
1671061655.4,286046999.4,N
1671061675.2,286046999.2,N
1671061695.1,286046996.6,N
1671061696.0,286046996.6,N
1671061715.8,286046996.5,N
1671061735.6,286046997.1,N
1671061755.5,286046995.3,Y
1671061775.3,286046997.3,P
1671061795.2,286046997.0,P
1671061815.9,286046997.1,P
1671061835.7,286046997.4,Y
1671061855.6,286046998.7,P
1671061875.4,286046999.3,N
1671061895.2,286046999.1,N
1671061915.1,286046999.2,N
1671061916.0,286046999.2,N
1671061935.8,286046998.4,N
1671061955.7,286047001.0,N
1671061975.5,286047000.5,N
1671061995.3,286046999.2,N
1671062015.2,286046999.5,N
1671062035.0,286046999.6,N
1671062035.9,286046999.6,N
1671062055.8,286046997.1,Y
1671062075.6,286046997.2,P
1671062095.4,286046997.9,N
1671062115.3,286046997.7,N
1671062135.1,286046997.0,Y
1671062155.8,286046999.9,P
1671062175.7,286047000.1,N
1671062195.5,286046998.2,N
1671062215.4,286046998.9,N
1671062235.2,286046999.0,N
1671062255.0,286046998.7,N
1671062255.9,286046998.7,N
1671062275.8,286046998.9,N
1671062295.6,286046999.6,N
1671062315.4,286046997.1,Y
1671062335.3,286046998.2,P
1671062355.1,286046998.2,P
1671062375.9,286047001.2,P
1671062395.7,286047000.8,N
